Radiation Dose measured at exhaust stack monitor of Miscellaneous Solid Waste Incinerator Building/Incinerator raregas monitor
Date,Time,Incinerator Gas Monitor(cps),Wind Direction,Wind Velocity(m/s)
2021/07/21,00:00,1.5,north-northwest,3.0
2021/07/21,00:10,1.4,north-northwest,3.1
2021/07/21,00:20,1.4,north,3.2
2021/07/21,00:30,1.4,north-northwest,2.5
2021/07/21,00:40,1.5,north-northwest,2.3
2021/07/21,00:50,1.4,north,2.5
2021/07/21,01:00,1.5,north-northwest,2.6
2021/07/21,01:10,1.4,north,2.0
2021/07/21,01:20,1.5,north,2.3
2021/07/21,01:30,1.5,north,2.3
2021/07/21,01:40,1.4,north-northwest,2.3
2021/07/21,01:50,1.4,north,2.2
2021/07/21,02:00,1.4,north,2.2
2021/07/21,02:10,1.4,north,2.0
2021/07/21,02:20,1.5,north,2.6
2021/07/21,02:30,1.5,north,2.2
2021/07/21,02:40,1.5,north,1.7
2021/07/21,02:50,1.5,north-northwest,2.0
2021/07/21,03:00,1.5,north-northwest,1.5
2021/07/21,03:10,1.5,north-northwest,1.9
2021/07/21,03:20,1.5,north-northwest,1.5
2021/07/21,03:30,1.5,north-northwest,1.4
2021/07/21,03:40,1.4,northwest,0.9
2021/07/21,03:50,1.4,west-northwest,0.8
2021/07/21,04:00,1.5,north-northwest,0.8
2021/07/21,04:10,1.4,west-southwest,1.2
2021/07/21,04:20,1.4,west,0.6
2021/07/21,04:30,1.3,south-southwest,0.8
2021/07/21,04:40,1.5,south-southwest,1.5
2021/07/21,04:50,1.5,south-southwest,1.7
2021/07/21,05:00,1.4,south,1.7
2021/07/21,05:10,1.5,south-southeast,1.2
2021/07/21,05:20,1.4,south-southeast,1.5
2021/07/21,05:30,1.5,south-southeast,0.9
2021/07/21,05:40,1.5,south-southeast,1.7
2021/07/21,05:50,1.4,south-southeast,0.9
2021/07/21,06:00,1.4,south-southeast,1.2
2021/07/21,06:10,1.4,south,0.6
2021/07/21,06:20,1.5,-,CALM
2021/07/21,06:30,1.5,east-southeast,1.2
2021/07/21,06:40,1.5,south-southeast,0.6
2021/07/21,06:50,1.5,east-northeast,0.6
2021/07/21,07:00,1.5,east-southeast,0.6
2021/07/21,07:10,1.5,east,0.6
2021/07/21,07:20,1.4,northeast,0.8
2021/07/21,07:30,1.4,east,0.9
2021/07/21,07:40,1.5,east-northeast,1.1
2021/07/21,07:50,1.5,east,1.4
2021/07/21,08:00,1.4,northeast,0.9
2021/07/21,08:10,1.4,east-southeast,1.7
2021/07/21,08:20,1.4,east-northeast,2.0
2021/07/21,08:30,1.5,east-northeast,2.5
2021/07/21,08:40,1.3,east,2.3
2021/07/21,08:50,1.4,east,2.3
2021/07/21,09:00,1.6,east,2.5
2021/07/21,09:10,1.4,east-northeast,2.3
2021/07/21,09:20,1.4,east-northeast,2.2
2021/07/21,09:30,1.4,east-northeast,2.0
2021/07/21,09:40,1.6,east-northeast,2.3
2021/07/21,09:50,1.4,east,2.0
2021/07/21,10:00,1.5,east,1.7
2021/07/21,10:10,1.4,east,2.3
2021/07/21,10:20,1.4,east,1.9
2021/07/21,10:30,1.4,east-southeast,2.3
2021/07/21,10:40,1.4,east-southeast,2.0
2021/07/21,10:50,1.4,east-southeast,1.7
2021/07/21,11:00,1.4,east,1.7
2021/07/21,11:10,1.4,east-southeast,1.9
2021/07/21,11:20,1.5,east-southeast,2.6
2021/07/21,11:30,1.4,east,2.2
2021/07/21,11:40,1.4,east-southeast,2.9
2021/07/21,11:50,1.4,east-southeast,3.2
2021/07/21,12:00,1.5,east-southeast,2.9
2021/07/21,12:10,1.5,east-southeast,2.8
2021/07/21,12:20,1.4,east-southeast,3.3
2021/07/21,12:30,1.4,east-southeast,3.1
2021/07/21,12:40,1.5,east-southeast,3.9
2021/07/21,12:50,1.5,east-southeast,2.6
2021/07/21,13:00,1.4,southeast,2.8
2021/07/21,13:10,1.5,south-southeast,3.0
2021/07/21,13:20,1.4,south-southeast,2.6
2021/07/21,13:30,1.4,south-southeast,2.0
2021/07/21,13:40,1.5,east-southeast,2.5
2021/07/21,13:50,1.4,southeast,2.6
2021/07/21,14:00,1.4,southeast,2.3
2021/07/21,14:10,1.5,southeast,2.8
2021/07/21,14:20,1.5,southeast,2.8
2021/07/21,14:30,1.3,east-southeast,2.9
2021/07/21,14:40,1.4,east-southeast,3.3
2021/07/21,14:50,1.4,southeast,3.7
2021/07/21,15:00,1.5,southeast,2.6
2021/07/21,15:10,1.4,southeast,3.0
2021/07/21,15:20,1.5,east-southeast,3.1
2021/07/21,15:30,1.4,east-southeast,3.5
2021/07/21,15:40,1.4,southeast,3.5
2021/07/21,15:50,1.4,southeast,3.2
2021/07/21,16:00,1.5,south-southeast,3.2
2021/07/21,16:10,1.4,southeast,2.5
2021/07/21,16:20,1.4,south-southeast,3.6
2021/07/21,16:30,1.5,south-southeast,4.1
2021/07/21,16:40,1.5,south,5.1
2021/07/21,16:50,1.4,south-southeast,6.0
2021/07/21,17:00,1.5,south-southeast,5.7
2021/07/21,17:10,1.4,south,5.6
2021/07/21,17:20,1.4,south,5.3
2021/07/21,17:30,1.5,south,4.6
2021/07/21,17:40,1.6,south-southeast,4.4
2021/07/21,17:50,1.4,south,5.4
2021/07/21,18:00,1.4,south,4.8
2021/07/21,18:10,1.5,south,5.5
2021/07/21,18:20,1.5,south,5.3
2021/07/21,18:30,1.4,south,6.5
2021/07/21,18:40,1.4,south,6.5
2021/07/21,18:50,1.5,south,4.5
2021/07/21,19:00,1.5,south,4.3
2021/07/21,19:10,1.4,south,3.2
2021/07/21,19:20,1.5,south,2.3
2021/07/21,19:30,1.4,south-southwest,1.9
2021/07/21,19:40,1.4,west-southwest,0.6
2021/07/21,19:50,1.5,-,CALM
2021/07/21,20:00,1.4,west-southwest,0.6
2021/07/21,20:10,1.5,northwest,0.6
2021/07/21,20:20,1.5,north-northwest,0.9
2021/07/21,20:30,1.5,north-northwest,1.7
2021/07/21,20:40,1.5,north-northwest,2.8
2021/07/21,20:50,1.4,north-northwest,3.5
2021/07/21,21:00,1.4,north-northwest,3.9
2021/07/21,21:10,1.4,north-northwest,4.0
2021/07/21,21:20,1.5,north,3.5
2021/07/21,21:30,1.5,north,3.1
2021/07/21,21:40,1.4,north,3.7
2021/07/21,21:50,1.5,north,3.4
2021/07/21,22:00,1.4,north,4.2
2021/07/21,22:10,1.4,north,3.7
2021/07/21,22:20,1.4,north-northwest,4.9
2021/07/21,22:30,1.4,north-northwest,4.8
2021/07/21,22:40,1.5,north-northwest,4.8
2021/07/21,22:50,1.3,north-northwest,4.2
2021/07/21,23:00,1.5,north,3.9
2021/07/21,23:10,1.4,north-northwest,4.3
2021/07/21,23:20,1.4,north-northwest,3.8
2021/07/21,23:30,1.5,north-northwest,3.6
2021/07/21,23:40,1.4,north-northwest,3.3
2021/07/21,23:50,1.4,north-northwest,2.0
